FW9692 Weather Reports


Display with metric or nautical units.
time (UTC)temp
F
wind
direction
speed
MPH
gust
MPH
rain 1hr
in
rain 24hr
in
rain mn
in
humidity
%
barometer
mb
20260505124510 69 230 14.0 16.0 0.00 0.00 0.00 33 996.1
20260505123004 68 229 13.0 15.0 0.00 0.00 0.00 33 995.9
20260505121503 69 227 13.0 15.0 0.00 0.00 0.00 32 995.8
20260505120100 69 217 13.0 16.0 0.00 0.00 0.00 30 995.8
20260505114558 69 212 12.0 14.0 0.00 0.00 0.00 31 995.5
20260505113057 70 200 10.0 11.0 0.00 0.00 0.00 30 995.4
20260505111559 71 205 11.0 12.0 0.00 0.00 0.00 27 995.4
20260505101601 69 252 10.0 14.0 0.00 0.00 0.00 32 995.2
20260505094546 71 250 12.0 14.0 0.00 0.00 0.00 31 995.2
20260505093046 71 252 13.0 15.0 0.00 0.00 0.00 31 995.3
20260505091545 71 232 13.0 17.0 0.00 0.00 0.00 32 995.3
20260505090055 72 245 14.0 17.0 0.00 0.00 0.00 31 995.2
20260505084548 73 259 14.0 17.0 0.00 0.00 0.00 29 995.1
20260505083039 74 242 12.0 15.0 0.00 0.00 0.00 30 995.2
20260505081543 74 238 13.0 16.0 0.00 0.00 0.00 28 995.2
20260505080034 76 236 13.0 20.0 0.00 0.00 0.00 28 995.4
20260505074536 76 235 14.0 20.0 0.00 0.00 0.00 28 995.6
20260505073038 75 219 12.0 18.0 0.00 0.00 0.00 28 995.4
20260505071531 74 177 9.0 14.0 0.00 0.00 0.00 30 995.7
20260505070032 74 246 11.0 14.0 0.00 0.00 0.00 30 995.7
20260505064529 75 246 11.0 18.0 0.00 0.00 0.00 29 995.6
20260505063029 75 242 15.0 18.0 0.00 0.00 0.00 27 995.5
20260505061531 75 207 12.0 17.0 0.00 0.00 0.00 29 995.7
20260505060033 74 190 8.0 9.0 0.00 0.00 0.00 30 995.8
20260505054535 75 183 7.0 8.0 0.00 0.00 0.00 30 996.2
20260505053023 76 228 6.0 11.0 0.00 0.00 0.00 27 996.1
20260505051523 76 229 12.0 15.0 0.00 0.00 0.00 27 996.2
20260505041528 78 227 7.0 10.0 0.00 0.00 0.00 24 996.4
20260505040026 78 230 13.0 16.0 0.00 0.00 0.00 24 996.4
20260505034529 80 263 12.0 16.0 0.00 0.00 0.00 21 996.2
20260505033044 80 245 13.0 16.0 0.00 0.00 0.00 22 995.7
20260505031529 80 252 14.0 16.0 0.00 0.00 0.00 21 995.6
20260505030029 80 243 15.0 17.0 0.00 0.00 0.00 22 995.5
20260505024522 80 253 17.0 21.0 0.00 0.00 0.00 21 995.6
20260505023022 81 250 16.0 22.0 0.00 0.00 0.00 21 995.6
20260505021520 81 254 20.0 26.0 0.00 0.00 0.00 20 995.3
20260505020019 82 254 25.0 33.0 0.00 0.00 0.00 19 995.2
20260505014522 82 262 23.0 30.0 0.00 0.00 0.00 19 995.2
20260505013020 82 268 25.0 30.0 0.00 0.00 0.00 18 995.1
20260505011520 83 248 20.0 35.0 0.00 0.00 0.00 18 995.2
20260505010016 84 259 28.0 38.0 0.00 0.00 0.00 17 994.9
20260505004536 84 252 28.0 37.0 0.00 0.00 0.00 16 995.2
20260505003020 85 265 32.0 42.0 0.00 0.00 0.00 16 994.9
20260505001521 85 266 35.0 45.0 0.00 0.00 0.00 16 995.2
20260505000022 86 269 30.0 41.0 0.00 0.00 0.00 16 995.1
20260504234528 86 273 32.0 40.0 0.00 0.00 0.00 16 995.4
20260504233019 86 243 27.0 38.0 0.00 0.00 0.00 16 995.8
20260504231532 85 275 21.0 32.0 0.00 0.00 0.00 16 996.1
20260504230016 85 277 22.0 33.0 0.00 0.00 0.00 15 996.2
20260504224518 85 261 27.0 35.0 0.00 0.00 0.00 15 996.3
20260504223015 85 257 23.0 32.0 0.00 0.00 0.00 15 996.5
20260504221512 85 270 18.0 35.0 0.00 0.00 0.00 15 996.8
20260504220012 86 284 28.0 35.0 0.00 0.00 0.00 15 996.9
20260504214516 86 261 25.0 31.0 0.00 0.00 0.00 13 996.9
20260504213010 86 281 29.0 38.0 0.00 0.00 0.00 13 997.0
20260504211503 85 261 28.0 38.0 0.00 0.00 0.00 13 997.3
20260504210001 86 284 28.0 36.0 0.00 0.00 0.00 13 997.4
20260504204638 86 261 27.0 38.0 0.00 0.00 0.00 12 997.7
20260504203059 85 262 23.0 40.0 0.00 0.00 0.00 14 997.8
20260504201559 85 254 28.0 40.0 0.00 0.00 0.00 13 998.2
20260504200057 85 265 28.0 40.0 0.00 0.00 0.00 13 998.3
20260504194555 85 262 27.0 42.0 0.00 0.00 0.00 15 998.6
20260504193049 84 277 29.0 36.0 0.00 0.00 0.00 16 999.0
20260504191544 83 270 19.0 34.0 0.00 0.00 0.00 17 999.2
20260504190047 82 242 22.0 35.0 0.00 0.00 0.00 21 999.4
20260504184539 82 273 23.0 37.0 0.00 0.00 0.00 24 999.7
20260504183034 81 265 26.0 33.0 0.00 0.00 0.00 26 999.9
20260504181551 80 267 23.0 29.0 0.00 0.00 0.00 26 1000.2
20260504180049 79 252 19.0 28.0 0.00 0.00 0.00 27 1000.5
20260504174551 79 279 23.0 30.0 0.00 0.00 0.00 25 1000.9
20260504173046 79 286 20.0 30.0 0.00 0.00 0.00 28 1000.9
20260504171543 79 299 24.0 34.0 0.00 0.00 0.00 27 1000.9